Waarnemingen

Advertentie
Mijn weer
Grünow, Duitsland (10289): temperatuur & dauwpunt: 14.11.2018 13:00:00 - 20.11.2018 13:00:00 (CET)Grünow, Duitsland (10289): temperatuur 5cm & temperatuur -5cm: 14.11.2018 13:00:00 - 20.11.2018 13:00:00 (CET)Grünow, Duitsland (10289): temperatuur -20cm & temperatuur -100cm: 14.11.2018 13:00:00 - 20.11.2018 13:00:00 (CET)Grünow, Duitsland (10289): windsnelheid & windstoten: 14.11.2018 13:00:00 - 20.11.2018 13:00:00 (CET)Grünow, Duitsland (10289): windrichting: 14.11.2018 13:00:00 - 20.11.2018 13:00:00 (CET)Grünow, Duitsland (10289): luchtdruk: 14.11.2018 13:00:00 - 20.11.2018 13:00:00 (CET)Grünow, Duitsland (10289): zicht: 14.11.2018 13:00:00 - 20.11.2018 13:00:00 (CET)Grünow, Duitsland (10289): Zonneschijnduur: 14.11.2018 13:00:00 - 20.11.2018 13:00:00 (CET)Grünow, Duitsland (10289): neerslag: 14.11.2018 13:00:00 - 20.11.2018 13:00:00 (CET)
Datum & Tijd tt [°C] td [°C] tt 5cm [°C] tt -5cm [°C] tt -20cm [°C] tt -100cm [°C] ff [km/u] ff [kn] fx [km/u] fx [kn] dd ppp [hPa] vv [km] sd [min] rr [mm]
20.11.2018 13:00:00 2,8 -1,7 2,9 3,2 4,3 9,0 27 15 47 25 O 1020,9 41 0 0,0
20.11.2018 12:00:00 2,9 -1,1 3,0 2,9 4,3 9,0 28 15 45 24 O 1021,4 33 0 0,0
20.11.2018 11:00:00 2,7 -0,9 2,5 2,7 4,3 9,0 22 12 39 21 O 1022,1 42 0 0,0
20.11.2018 10:00:00 2,7 -0,9 2,5 2,6 4,3 9,0 23 12 40 21 O 1022,6 34 0 0,0
20.11.2018 09:00:00 2,9 -1,3 2,7 2,5 4,3 9,0 23 13 42 23 O 1022,8 42 0 0,0
20.11.2018 08:00:00 2,8 -1,3 2,4 2,3 4,4 9,1 23 12 38 21 O 1022,9 42 0 0,0
20.11.2018 07:00:00 2,5 -1,7 2,0 2,2 4,4 9,1 18 10 32 17 O 1022,6 43 0 0,0
20.11.2018 06:00:00 2,3 -1,3 1,9 1,9 4,5 9,1 20 11 35 19 O 1022,6 39 0 0,0
20.11.2018 05:00:00 1,8 -1,3 0,7 1,7 4,6 9,1 16 8 33 18 O 1023,4 33 0 0,0
20.11.2018 04:00:00 1,8 -1,7 0,8 1,9 4,7 9,1 17 9 31 17 O 1023,8 45 0 0,0
20.11.2018 03:00:00 2,0 -2,1 0,9 2,5 4,8 9,1 22 12 44 24 O 1024,4 54 0 0,0
20.11.2018 02:00:00 3,0 -1,9 2,1 3,1 4,9 9,1 29 16 47 26 O 1024,9 57 0 0,0
20.11.2018 01:00:00 3,7 -0,3 3,3 3,3 4,9 9,1 23 12 39 21 O 1025,2 44 0 0,0
20.11.2018 00:00:00 3,2 0,4 2,2 3,5 4,9 9,1 15 8 29 16 O 1025,3 34 0 0,0
19.11.2018 23:00:00 3,6 0,4 3,3 3,7 5,0 9,2 18 10 31 17 O 1025,3 50 0 0,0
19.11.2018 22:00:00 3,8 0,5 3,5 3,8 5,0 9,2 16 9 32 18 ONO 1025,5 51 0 0,0
19.11.2018 21:00:00 4,2 0,9 3,8 3,9 5,0 9,2 13 7 27 15 ONO 1025,3 47 0 0,0
19.11.2018 20:00:00 4,3 1,0 3,9 3,9 5,0 9,2 14 8 30 16 ONO 1025,3 47 0 0,0
19.11.2018 19:00:00 4,4 0,9 4,0 4,0 5,0 9,2 16 9 29 16 ONO 1025,2 59 0 0,0
19.11.2018 18:00:00 4,5 1,2 4,1 4,1 5,0 9,2 18 10 32 18 ONO 1025,1 54 0 0,0
19.11.2018 17:00:00 4,4 1,3 3,9 4,2 5,0 9,2 16 9 34 19 ONO 1024,9 49 0 0,0
19.11.2018 16:00:00 4,6 1,1 4,2 4,5 5,0 9,3 18 10 31 17 ONO 1024,9 69 0 0,0
19.11.2018 15:00:00 4,6 1,8 4,4 4,8 4,9 9,3 16 9 40 22 ONO 1024,8 75 0 0,0
19.11.2018 14:00:00 5,2 1,7 5,5 5,3 4,8 9,3 19 10 36 19 ONO 1025,0 58 12 0,0
19.11.2018 13:00:00 5,1 1,9 5,1 5,1 4,6 9,3 19 10 40 22 ONO 1025,2 63 0 0,0
19.11.2018 12:00:00 5,0 1,7 5,3 4,8 4,5 9,3 20 11 37 20 ONO 1025,5 67 0 0,0
19.11.2018 11:00:00 4,8 1,5 4,5 4,4 4,4 9,3 19 11 35 19 ONO 1025,8 51 0 0,0
19.11.2018 10:00:00 4,3 2,0 4,2 3,7 4,4 9,4 12 6 24 13 NO 1025,8 56 3 0,0
19.11.2018 09:00:00 3,3 1,7 2,8 3,1 4,3 9,4 11 6 22 12 NO 1025,5 52 0 0,0
19.11.2018 08:00:00 3,3 1,8 2,4 3,1 4,3 9,4 10 6 18 10 NO 1025,4 50 0 0,0
19.11.2018 07:00:00 3,3 1,7 2,6 3,1 4,3 9,4 11 6 20 11 NO 1025,2 46 0 0,0
19.11.2018 06:00:00 3,5 1,7 2,6 3,1 4,3 9,4 10 5 26 14 NO 1025,0 45 0 0,0
19.11.2018 05:00:00 3,5 1,9 2,7 3,0 4,2 9,5 11 6 22 12 NO 1025,3 39 0 0,0
19.11.2018 04:00:00 3,6 2,0 2,8 2,9 4,2 9,5 13 7 24 13 NO 1025,4 35 0 0,0
19.11.2018 03:00:00 3,7 2,0 2,6 2,8 4,2 9,5 14 7 27 15 NO 1025,9 43 0 0,0
19.11.2018 02:00:00 4,0 2,2 2,9 2,7 4,2 9,5 16 9 28 15 NO 1026,2 40 0 0,0
19.11.2018 01:00:00 3,8 2,0 2,8 2,3 4,2 9,5 18 10 27 15 NO 1026,6 48 0 0,0
19.11.2018 00:00:00 3,5 1,9 1,7 2,3 4,2 9,6 10 6 21 12 NO 1027,1 44 0 0,0
18.11.2018 23:00:00 3,4 2,0 1,6 2,3 4,2 9,6 11 6 22 12 NO 1027,4 53 0 0,0
18.11.2018 22:00:00 3,9 2,4 2,0 2,6 4,2 9,6 13 7 28 15 NO 1027,7 52 0 0,0
18.11.2018 21:00:00 4,5 2,9 2,7 3,0 4,2 9,6 18 10 30 16 NO 1027,8 60 0 0,0
18.11.2018 20:00:00 5,2 3,6 3,5 3,4 4,1 9,6 19 11 33 18 NO 1027,8 62 0 0,0
18.11.2018 19:00:00 4,6 4,0 4,1 3,1 4,0 9,6 18 10 29 16 N 1028,0 19 0 0,0
18.11.2018 18:00:00 4,6 3,1 3,6 2,6 3,9 9,7 18 10 26 14 N 1028,5 33 0 0,0
18.11.2018 17:00:00 4,2 3,4 3,1 2,5 3,8 9,7 12 6 22 12 N 1028,9 15 0 0,0
18.11.2018 16:00:00 2,9 2,8 2,3 2,3 3,8 9,7 5 3 14 7 N 1029,4 1,9 0 0,0
18.11.2018 15:00:00 2,5 2,3 2,5 1,7 3,7 9,7 11 6 14 8 NW 1029,7 1,0 0 0,0
18.11.2018 14:00:00 2,3 2,1 2,3 0,8 3,7 9,7 5 3 12 6 NNW 1030,6 0,9 0 0,2
18.11.2018 13:00:00 2,3 1,8 2,2 0,7 3,8 9,8 8 4 10 5 N 1031,0 2,4 0 0,0
18.11.2018 12:00:00 1,7 0,8 1,5 0,6 3,8 9,8 6 4 9 5 NW 1031,8 4,6 0 0,0
18.11.2018 11:00:00 1,2 0,3 1,1 0,6 3,9 9,8 7 4 10 5 N 1032,9 6 0 0,0
18.11.2018 10:00:00 0,1 -2,7 -0,1 0,5 3,9 9,8 5 3 8 4 NNW 1033,3 13 0 0,0
18.11.2018 09:00:00 -1,4 -3,3 -1,5 0,5 4,0 9,8 2 1 9 5 NNW 1033,5 12 4 0,0
18.11.2018 08:00:00 -2,3 -3,5 -2,7 0,5 4,1 9,8 6 4 8 4 WZW 1033,3 8 0 0,0
18.11.2018 07:00:00 -3,0 -3,8 -4,5 0,5 4,2 9,8 0 0 7 4 N 1034,7 8 0 0,0
18.11.2018 06:00:00 -3,3 -4,1 -4,4 0,6 4,3 9,9 4 2 6 4 WZW 1035,0 5 0 0,0
18.11.2018 05:00:00 -2,5 -3,8 -4,6 0,7 4,3 9,9 2 1 8 5 Z 1035,5 9 0 0,0
18.11.2018 04:00:00 -1,6 -3,0 -4,2 0,8 4,4 9,9 8 5 11 6 NNO 1036,3 8 0 0,0
18.11.2018 03:00:00 -1,5 -3,4 -5,3 0,9 4,5 9,9 5 3 6 4 N 1036,8 12 0 0,0
18.11.2018 02:00:00 -1,9 -3,3 -5,3 1,0 4,6 9,9 3 2 6 3 NW 1037,5 11 0 0,0
18.11.2018 01:00:00 -2,0 -3,4 -5,1 1,2 4,7 9,9 6 3 6 4 N 1038,0 12 0 0,0
18.11.2018 00:00:00 -1,9 -3,6 -4,8 1,3 4,8 10,0 1 0 6 3 Z 1038,1 11 0 0,0
17.11.2018 23:00:00 -1,1 -3,3 -4,0 1,5 4,9 10,0 3 2 16 9 ONO 1038,7 13 0 0,0
17.11.2018 22:00:00 1,0 -3,6 -0,8 1,7 5,0 10,0 12 7 17 9 O 1038,7 18 0 0,0
17.11.2018 21:00:00 1,3 -2,6 -0,5 1,9 5,2 10,0 12 7 21 11 O 1038,6 16 0 0,0
17.11.2018 20:00:00 2,0 -2,5 0,4 2,0 5,3 10,0 13 7 17 9 O 1038,7 19 0 0,0
17.11.2018 19:00:00 2,1 -1,6 0,2 2,2 5,4 10,0 12 7 17 9 O 1039,0 15 0 0,0
17.11.2018 18:00:00 2,6 -1,1 1,0 2,9 5,5 10,1 11 6 20 11 O 1039,3 14 0 0,0
17.11.2018 17:00:00 3,6 -1,2 2,3 3,5 5,6 10,1 12 7 19 11 ONO 1039,5 22 0 0,0
17.11.2018 16:00:00 3,7 -0,5 2,5 4,4 5,5 10,1 11 6 18 10 ONO 1039,9 18 60 0,0
17.11.2018 15:00:00 4,8 0,0 5,0 5,6 5,4 10,1 12 7 19 10 O 1039,5 16 60 0,0
17.11.2018 14:00:00 5,2 -0,8 6,2 5,9 5,2 10,1 12 6 18 10 O 1039,5 21 60 0,0
17.11.2018 13:00:00 4,6 -0,3 5,7 5,2 5,0 10,1 12 7 21 12 OZO 1039,9 18 60 0,0
17.11.2018 12:00:00 3,4 0,0 4,7 3,7 5,0 10,1 11 6 24 13 OZO 1040,3 13 60 0,0
17.11.2018 11:00:00 2,6 -0,2 3,0 2,0 5,0 10,1 13 7 20 11 OZO 1040,5 12 60 0,0
17.11.2018 10:00:00 1,2 -0,6 0,0 1,5 5,1 10,2 13 7 22 12 O 1040,5 9 60 0,0
17.11.2018 09:00:00 0,4 -1,0 -0,7 1,5 5,2 10,2 9 5 18 10 O 1040,8 8 44 0,0
17.11.2018 08:00:00 -0,4 -1,4 -1,6 1,6 5,3 10,2 9 5 17 9 ONO 1040,5 7 0 0,0
17.11.2018 07:00:00 -0,2 -1,3 -1,8 1,7 5,4 10,2 8 5 15 8 O 1039,9 7 0 0,0
17.11.2018 06:00:00 0,1 -1,1 -1,5 1,9 5,5 10,2 8 4 24 13 O 1039,5 10 0 0,0
17.11.2018 05:00:00 0,2 -1,3 -0,9 2,0 5,7 10,2 11 6 19 10 O 1039,7 11 0 0,0
17.11.2018 04:00:00 0,4 -1,1 -0,7 2,0 5,8 10,2 12 7 21 11 O 1039,6 12 0 0,0
17.11.2018 03:00:00 0,9 -1,0 -0,2 2,2 6,0 10,2 14 8 25 13 O 1039,5 14 0 0,0
17.11.2018 02:00:00 1,3 -0,6 0,1 2,6 6,1 10,3 15 8 24 13 O 1039,5 16 0 0,0
17.11.2018 01:00:00 2,0 -0,5 0,9 3,1 6,3 10,3 17 9 24 13 OZO 1039,3 20 0 0,0
17.11.2018 00:00:00 2,7 -0,1 1,4 3,7 6,4 10,3 14 8 19 10 OZO 1039,1 25 0 0,0
16.11.2018 23:00:00 3,3 0,1 2,0 4,2 6,4 10,3 13 7 20 11 O 1038,8 25 0 0,0
16.11.2018 22:00:00 4,3 0,8 4,0 4,6 6,5 10,3 14 8 31 17 OZO 1038,7 25 0 0,0
16.11.2018 21:00:00 4,7 0,9 4,4 4,8 6,5 10,3 21 12 30 16 OZO 1038,2 31 0 0,0
16.11.2018 20:00:00 5,2 1,7 4,8 4,8 6,5 10,3 16 9 33 18 OZO 1038,2 32 0 0,0
16.11.2018 19:00:00 5,4 1,2 5,0 4,7 6,6 10,3 22 12 30 16 OZO 1037,6 38 0 0,0
16.11.2018 18:00:00 4,7 1,9 3,7 4,5 6,7 10,4 11 6 17 9 OZO 1037,3 32 0 0,0
16.11.2018 17:00:00 4,6 1,7 2,7 5,1 6,8 10,4 8 4 16 8 O 1037,1 32 0 0,0
16.11.2018 16:00:00 6,1 2,3 4,8 6,2 6,7 10,4 11 6 21 11 OZO 1036,9 37 57 0,0
16.11.2018 15:00:00 7,5 2,0 7,7 7,4 6,5 10,4 14 8 26 14 OZO 1036,8 41 60 0,0
16.11.2018 14:00:00 8,2 2,6 9,4 7,7 6,3 10,4 12 6 24 13 ZO 1036,5 43 60 0,0
16.11.2018 13:00:00 8,0 2,9 8,6 7,2 6,1 10,4 19 10 29 16 ZO 1036,1 30 60 0,0
16.11.2018 12:00:00 7,0 2,8 7,8 6,0 5,9 10,4 16 9 26 14 ZO 1036,6 25 60 0,0
16.11.2018 11:00:00 5,9 2,4 5,7 4,3 5,9 10,4 14 8 23 13 ZO 1036,9 21 60 0,0
16.11.2018 10:00:00 4,6 2,0 3,0 2,6 6,0 10,4 10 5 16 8 ZO 1037,0 18 60 0,0
16.11.2018 09:00:00 2,5 1,3 1,3 2,3 6,1 10,4 14 7 21 11 OZO 1036,6 12 60 0,0
16.11.2018 08:00:00 1,5 0,4 0,4 2,2 6,2 10,4 15 8 19 11 OZO 1036,1 12 0 0,0
16.11.2018 07:00:00 1,6 0,5 0,3 2,3 6,3 10,4 13 7 16 9 OZO 1035,5 13 0 0,0
16.11.2018 06:00:00 1,6 0,4 0,2 2,5 6,5 10,4 11 6 15 8 OZO 1035,1 14 0 0,0
16.11.2018 05:00:00 1,8 0,5 0,4 2,6 6,7 10,4 12 7 15 8 OZO 1034,8 14 0 0,0
16.11.2018 04:00:00 1,3 0,8 -1,7 2,8 6,9 10,5 4 2 10 5 O 1034,5 8 0 0,0
16.11.2018 03:00:00 1,3 0,5 -0,4 3,3 7,0 10,5 6 3 12 7 ZO 1034,3 7 0 0,0
16.11.2018 02:00:00 2,8 1,8 1,4 3,6 7,2 10,5 9 5 13 7 OZO 1034,2 9 0 0,0
16.11.2018 01:00:00 3,3 2,5 1,9 3,9 7,4 10,5 10 5 14 7 ZO 1033,9 6 0 0,0
16.11.2018 00:00:00 3,9 3,1 0,7 4,3 7,6 10,5 6 3 11 6 ZO 1033,7 6 0 0,0
15.11.2018 23:00:00 4,3 3,2 2,2 4,8 7,7 10,5 9 5 16 9 ZZO 1033,4 7 0 0,0
15.11.2018 22:00:00 5,0 3,8 3,6 5,3 7,8 10,5 10 5 20 11 ZO 1033,2 8 0 0,0
15.11.2018 21:00:00 5,7 4,5 4,4 5,6 8,0 10,5 10 6 22 12 ZO 1032,8 8 0 0,0
15.11.2018 20:00:00 5,8 4,5 4,8 5,8 8,1 10,5 15 8 22 12 OZO 1032,4 11 0 0,0
15.11.2018 19:00:00 6,0 4,2 5,1 6,2 8,3 10,5 15 8 21 12 OZO 1032,0 18 0 0,0
15.11.2018 18:00:00 6,3 4,2 4,9 6,7 8,4 10,5 14 7 20 11 OZO 1031,8 28 0 0,0
15.11.2018 17:00:00 7,0 5,1 5,6 7,4 8,5 10,5 11 6 16 8 OZO 1031,6 19 1 0,0
15.11.2018 16:00:00 8,0 5,5 7,2 8,4 8,4 10,5 11 6 23 12 OZO 1031,4 30 22 0,0
15.11.2018 15:00:00 9,6 5,7 9,1 9,8 8,3 10,5 14 8 22 12 OZO 1031,2 27 49 0,0
15.11.2018 14:00:00 9,1 7,4 9,5 9,6 8,2 10,5 14 7 20 11 O 1031,2 12 26 0,0
15.11.2018 13:00:00 9,7 6,8 9,9 9,5 8,0 10,5 12 6 19 10 ZO 1031,3 22 14 0,0
15.11.2018 12:00:00 9,2 6,7 10,0 8,8 7,8 10,5 13 7 18 10 ZZO 1031,5 23 4 0,0
15.11.2018 11:00:00 8,2 6,3 8,2 8,0 7,7 10,5 13 7 19 10 ZO 1031,5 16 0 0,0
15.11.2018 10:00:00 7,7 5,8 7,2 7,0 7,7 10,5 12 6 19 10 ZO 1031,3 15 43 0,0
15.11.2018 09:00:00 5,9 5,4 5,8 6,2 7,7 10,5 8 5 17 9 ZO 1031,0 8 15 0,0
15.11.2018 08:00:00 4,8 4,5 4,6 5,8 7,8 10,5 11 6 19 10 ZO 1030,9 4,7 0 0,0
15.11.2018 07:00:00 4,8 4,5 4,6 5,7 7,9 10,5 14 7 19 11 ZO 1030,5 3,0 0 0,0
15.11.2018 06:00:00 4,7 4,5 4,4 5,9 7,9 10,5 10 5 14 8 ZO 1030,3 1,4 0 0,0
15.11.2018 05:00:00 5,3 5,0 4,8 6,1 8,0 10,5 7 4 13 7 ZO 1030,1 4,0 0 0,0
15.11.2018 04:00:00 5,6 5,2 5,1 6,2 8,1 10,5 9 5 13 7 ZO 1029,9 4,0 0 0,0
15.11.2018 03:00:00 5,5 5,1 4,7 6,3 8,2 10,5 9 5 12 6 ZZO 1030,0 4,1 0 0,0
15.11.2018 02:00:00 5,6 5,2 4,9 6,6 8,2 10,5 7 4 10 5 ZZO 1030,0 4,3 0 0,0
15.11.2018 01:00:00 6,2 5,6 5,7 6,8 8,3 10,5 6 3 10 5 ZO 1030,1 5 0 0,0
15.11.2018 00:00:00 6,0 5,5 5,6 6,8 8,4 10,5 9 5 11 6 Z 1030,1 5 0 0,0
14.11.2018 23:00:00 6,3 5,7 5,7 6,7 8,5 10,6 9 5 13 7 ZZO 1030,0 6 0 0,0
14.11.2018 22:00:00 6,0 5,5 5,5 6,7 8,6 10,6 8 4 11 6 Z 1030,0 5 0 0,0
14.11.2018 21:00:00 5,6 5,2 4,8 6,8 8,7 10,6 8 4 10 5 Z 1030,2 6 0 0,0
14.11.2018 20:00:00 5,9 5,3 5,1 7,0 8,8 10,6 8 4 10 5 Z 1029,8 7 0 0,0
14.11.2018 19:00:00 6,0 5,4 5,4 7,3 9,0 10,6 9 5 11 6 ZZW 1029,7 6 0 0,0
14.11.2018 18:00:00 6,4 5,6 5,4 7,8 9,1 10,6 10 6 15 8 ZW 1029,8 7 0 0,0
14.11.2018 17:00:00 7,0 6,2 6,0 8,4 9,2 10,6 9 5 16 8 ZW 1029,6 9 0 0,0
14.11.2018 16:00:00 8,1 6,6 7,0 9,4 9,2 10,6 11 6 18 10 ZW 1029,6 17 0 0,0
14.11.2018 15:00:00 9,2 7,0 8,7 10,2 9,1 10,6 12 6 21 11 ZW 1029,0 24 0 0,0
14.11.2018 14:00:00 10,1 7,0 10,4 10,8 8,9 10,6 14 8 19 11 ZW 1028,8 24 38 0,0
14.11.2018 13:00:00 10,2 7,4 10,9 10,8 8,7 10,6 15 8 21 12 WZW 1029,1 24 59 0,0

tt = temperatuur
td = dauwpunt
tt 5cm = temperatuur 5cm
tt -5cm = temperatuur -5cm
tt -20cm = temperatuur -20cm
tt -100cm = temperatuur -100cm
ff = windsnelheid
fx = windstoten
dd = windrichting
ppp = luchtdruk
vv = zicht
sd = Zonneschijnduur
rr = neerslag

Weerstations in de omgeving